User: anonymous   Login
Location: Dos Palmas
(32.4468°N, 116.8732°W)
Time: 23:52:03
(UTC+00:00)
Language:

Delta 2 Rocket - Orbit

View from above orbital plane
View from above orbital plane
View from above satellite
View from above satellite

Ground track
Ground track

The orbit data is extracted from the following two-line orbital elements,

1 20453U 90008B   21259.79326830  .00003011  00000-0  16584-3 0  9990
2 20453  35.6242  82.9304 0275272 158.0659 203.2099 14.86932085679129
Epoch (UTC): 16 September 2021 19:02:18
Eccentricity: 0.0275272
inclination: 35.6242°
perigee height: 415 km
apogee height: 800 km
right ascension of ascending node: 82.9304°
argument of perigee: 158.0659°
revolutions per day: 14.86932085
mean anomaly at epoch: 203.2099°
orbit number at epoch: 67912

The dashed part of the orbit path shows where the satellite is in the earth's shadow,  

DLR